Hourly Data Report for February 06, 2020

TORONTO CITY
ONTARIO
Current Station Operator: ECCC - MSC

43°40'00.000" N
79°24'00.000" W
112.50 m
6158355
71508
XTO

Download Data

Hourly Data (February 2020)
Hourly Data Report for February 6, 2020
TIME
LST
Temp Definition
°C
Dew Point Definition
°C
Rel Hum Definition
%
Precip. Amount Definition
mm

Wind Dir Definition
10's deg

Wind Spd Definition
km/h
Visibility Definition
km
Stn Press Definition
kPa
Hmdx Definition


Wind Chill Definition


Weather Definition


00:00 -3.9 -9.0 67 0.0       99.81     LegendNANA
01:00 -4.5 -6.4 86 0.7       99.72     LegendNANA
02:00 -4.4 -6.5 85 0.5       99.59     LegendNANA
03:00 -3.7 -5.5 87 0.2       99.50     LegendNANA
04:00 -3.6 -5.5 87 0.3       99.40     LegendNANA
05:00 -3.8 -5.8 86 0.2       99.29     LegendNANA
06:00 -3.8 -6.0 85 0.6       99.28     LegendNANA
07:00 -3.9 -6.2 84 0.3       99.17     LegendNANA
08:00 -4.0 -5.7 88 0.5       99.12     LegendNANA
09:00 -3.6 -5.7 86 0.2       99.01     LegendNANA
10:00 -3.4 -5.8 83 0.2       98.97     LegendNANA
11:00 -3.1 -5.8 81 0.0       99.03     LegendNANA
12:00 -3.3 -5.7 83 0.6       98.95     LegendNANA
13:00 -3.2 -6.8 76 0.0       98.87     LegendNANA
14:00 -2.7 -7.1 72 0.0       98.75     LegendNANA
15:00 -2.6 -7.6 69 0.0       98.61     LegendNANA
16:00 -2.8 -7.8 69 0.0       98.65     LegendNANA
17:00 -2.8 -7.5 70 0.0       98.55     LegendNANA
18:00 -3.2 -7.8 70 0.0       98.49     LegendNANA
19:00 -3.1 -7.3 73 0.2       98.60     LegendNANA
20:00 -3.6 -6.4 81 0.0       98.52     LegendNANA
21:00 -3.9 -5.9 86 0.6       98.51     LegendNANA
22:00 -4.1 -5.6 89 1.5       98.48     LegendNANA
23:00 -4.3 -5.9 88 1.0       98.37     LegendNANA

Notes on Data Quality.

Legend

  • E = Estimated
  • M = Missing
  • NA = Not Available*
  • [empty] = Indicates an unobserved value
Date modified: